Weather Service Report


856 
ASUS44 KFWD 251201
RWRTX 
NORTH TEXAS HOURLY WEATHER ROUNDUP
NATIONAL WEATHER SERVICE FORT WORTH TX
700 AM CDT FRI JUL 25 2014

NOTE: "FAIR" INDICATES FEW OR NO CLOUDS BELOW 12,000 FEET WITH NO
SIGNIFICANT WEATHER AND/OR OBSTRUCTIONS TO VISIBILITY.

TXZ118-119-251300-
DALLAS/FORT WORTH METROPLEX
  
CITY           SKY/WX    TMP DP  RH WIND       PRES   REMARKS
DFW AIRPORT    PTCLDY    74  70  87 SE5       30.01S                  
6HR MIN TEMP:  74; 6HR MAX TEMP:  80;                                

DALLAS LOVE    PTCLDY    75  71  87 SE7       30.01S                  
6HR MIN TEMP:  75; 6HR MAX TEMP:  81;                                

FTW MEACHAM    CLEAR     75  68  78 SE5       30.01S                  
6HR MIN TEMP:  75; 6HR MAX TEMP:  82;                                

DAL-EXECUTIVE  CLEAR     74  70  87 SE3       30.02S                  
6HR MIN TEMP:  73; 6HR MAX TEMP:  80;                                

FTW-ALLIANCE   PTCLDY    73  68  84 CALM      30.01S                  
6HR MIN TEMP:  72; 6HR MAX TEMP:  76;                                

FTW-NAS-JRB    PTCLDY    79  66  64 E5        30.05F                  
6HR MIN TEMP:  78; 6HR MAX TEMP:  84;                                

FTW-SPINKS     CLEAR     70  66  88 S5        30.03F                  
ARLINGTON      CLEAR     71  67  87 CALM      30.02S                  
6HR MIN TEMP:  70; 6HR MAX TEMP:  79;                                

GRAND PRAIRIE  CLEAR     73  66  78 CALM      30.03S                  
MESQUITE       CLEAR     70  70 100 CALM      30.02S FOG              
LANCASTER      FOG       67  64  90 CALM      30.03R VSB<1/4          
6HR MIN TEMP:  66; 6HR MAX TEMP:  73;                                

$$

TXZ091>094-102>105-117-120-121-131>134-251300-
NORTH CENTRAL TEXAS
  
CITY           SKY/WX    TMP DP  RH WIND       PRES   REMARKS
SHRMAN/DENISON PTCLDY    74  70  89 S9        30.02F FOG              
6HR MIN TEMP:  74; 6HR MAX TEMP:  79;                                

GAINESVILLE    CLEAR     70  70  99 SE5       30.04S FOG              
6HR MIN TEMP:  70; 6HR MAX TEMP:  75;                                

BOWIE          CLEAR     69  68  96 CALM      30.02S                  
6HR MIN TEMP:  69; 6HR MAX TEMP:  74;                                

BRIDGEPORT     CLEAR     69  69 100 CALM      30.03S                  
6HR MIN TEMP:  69; 6HR MAX TEMP:  73;                                

DECATUR        CLEAR     74  67  79 SE6       30.03S                  
6HR MIN TEMP:  73; 6HR MAX TEMP:  77;                                

DENTON         CLEAR     73  70  90 SE6       30.01S                  
6HR MIN TEMP:  72; 6HR MAX TEMP:  78;                                

MCKINNEY       CLEAR     72  70  93 S5        30.02F FOG              
6HR MIN TEMP:  71; 6HR MAX TEMP:  76;                                

GREENVILLE     CLEAR     70  68  94 CALM      30.03S FOG              
ROCKWALL       CLEAR     72  71  97 CALM      30.02S FOG              
6HR MIN TEMP:  72; 6HR MAX TEMP:  75;                                

TERRELL        CLEAR     72  72 100 NE3       30.03R FOG              
6HR MIN TEMP:  72; 6HR MAX TEMP:  77;                                

WAXAHACHIE     CLEAR     69  67  93 CALM      30.03S                  
6HR MIN TEMP:  69; 6HR MAX TEMP:  75;                                

CLEBURNE       CLEAR     73  70  88 SE5       30.04S                  
GRANBURY       CLEAR     75  69  79 SE3       30.03S                  
6HR MIN TEMP:  75; 6HR MAX TEMP:  81;                                

$$

TXZ083>090-098>101-113>116-127>130-139>142-154-155-251300-
WESTERN NORTH TEXAS
  
CITY           SKY/WX    TMP DP  RH WIND       PRES   REMARKS
WICHITA FALLS  PTCLDY    71  66  84 SE6       29.98S                  
6HR MIN TEMP:  71; 6HR MAX TEMP:  78;                                

WF-KICKAPOO    CLEAR     71  66  84 S6        30.00S                  
6HR MIN TEMP:  71; 6HR MAX TEMP:  78;                                

VERNON         CLEAR     73  65  76 S7        30.00S                  
ABILENE        CLEAR     72  65  78 S6        30.05S                  
6HR MIN TEMP:  72; 6HR MAX TEMP:  79;                                

ABILENE-DYESS  CLEAR     70  65  84 S6        30.04S                  
6HR MIN TEMP:  70; 6HR MAX TEMP:  78;                                

BRECKENRIDGE   CLEAR     74  66  74 S6        30.03S                  
6HR MIN TEMP:  74; 6HR MAX TEMP:  81;                                

GRAHAM         CLEAR     71  65  81 CALM      30.01R                  
6HR MIN TEMP:  71; 6HR MAX TEMP:  80;                                

MINERAL WELLS  CLEAR     71  67  87 SE7       30.01S                  
6HR MIN TEMP:  71; 6HR MAX TEMP:  79;                                

STEPHENVILLE   CLEAR     70  66  86 CALM      30.07R                  
6HR MIN TEMP:  70; 6HR MAX TEMP:  80;                                

COMANCHE       CLEAR     69  68  96 S3        30.05S                  
6HR MIN TEMP:  69; 6HR MAX TEMP:  77;                                

BROWNWOOD      CLEAR     68  66  94 CALM      30.06R FOG              
COLEMAN        CLEAR     71  65  80 CALM      30.06S                  
6HR MIN TEMP:  71; 6HR MAX TEMP:  78;                                

BRADY          CLEAR     72  66  83 CALM      30.07R                  
$$

TXZ143>147-156>162-174-175-251300-
CENTRAL TEXAS
  
CITY           SKY/WX    TMP DP  RH WIND       PRES   REMARKS
WACO           CLEAR     71  69  93 CALM      30.01S                  
6HR MIN TEMP:  71; 6HR MAX TEMP:  79;                                

WACO-TSTC      CLEAR     72  68  88 S5        30.01                   
WACO-MCGREGOR  CLEAR     72  64  78 S5        30.04S                  
6HR MIN TEMP:  72; 6HR MAX TEMP:  75;                                

CORSICANA      CLEAR     73  70  90 S6        30.02S                  
6HR MIN TEMP:  73; 6HR MAX TEMP:  78;                                

MEXIA          CLEAR     71  69  93 S3        30.01S                  
6HR MIN TEMP:  70; 6HR MAX TEMP:  75;                                

CAMERON        CLEAR     75  73  92 S3        30.02S                  
6HR MIN TEMP:  74; 6HR MAX TEMP:  77;                                

TEMPLE         CLEAR     73  66  78 S6        30.04R                  
6HR MIN TEMP:  72; 6HR MAX TEMP:  75;                                

KILLEEN        NOT AVBL                                               
KILLEEN-SKYLRK CLEAR     73  64  73 S6        30.04R                  
6HR MIN TEMP:  72; 6HR MAX TEMP:  81;                                

FORT HOOD      CLEAR     75  70  84 S5        30.04R                  
6HR MIN TEMP:  75; 6HR MAX TEMP:  80;                                

GATESVILLE     CLEAR     72  68  88 CALM      30.05S                  
HAMILTON       CLEAR     71  70  98 S13       30.05S                  
6HR MIN TEMP:  71; 6HR MAX TEMP:  76;                                

LAMPASAS       CLEAR     71  69  94 CALM      30.04S FOG              
6HR MIN TEMP:  71; 6HR MAX TEMP:  77;                                

$$

TXZ095>097-106>112-122>126-135>138-148>153-164>167-251300-
EAST TEXAS
  
CITY           SKY/WX    TMP DP  RH WIND       PRES   REMARKS
PARIS          CLEAR     70  64  83 CALM      30.04S                  
6HR MIN TEMP:  70; 6HR MAX TEMP:  72;                                

SULPHUR SPRNGS CLEAR     72  71  98 CALM      30.05S FOG              
6HR MIN TEMP:  70; 6HR MAX TEMP:  74;                                

CLARKSVILLE    CLOUDY    72  71  99 CALM      30.03S VSB 1/4          
6HR MIN TEMP:  71; 6HR MAX TEMP:  74;                                

MOUNT PLEASANT CLOUDY    68  67  99 CALM      30.05R VSB 1/4          
6HR MIN TEMP:  67; 6HR MAX TEMP:  71;                                

GILMER         CLEAR     72  72 100 CALM      30.04F FOG              
MINEOLA        CLEAR     70  70 100 CALM      30.03S FOG              
TYLER          CLEAR     73  70  90 CALM      30.03R                  
6HR MIN TEMP:  73; 6HR MAX TEMP:  76;                                

LONGVIEW       MOCLDY    71  69  93 CALM      30.02R FOG              
6HR MIN TEMP:  70; 6HR MAX TEMP:  73;                                

MARSHALL       CLOUDY    73  71  93 CALM      30.05S                  
6HR MIN TEMP:  73; 6HR MAX TEMP:  73;                                

ATHENS         CLEAR     70  70 100 CALM      30.01S FOG              
JACKSONVILLE   CLEAR     73  71  95 S3        30.06S FOG              
HENDERSON      MOCLDY    70  70  99 CALM      30.04S FOG              
6HR MIN TEMP:  70; 6HR MAX TEMP:  73;                                

NACOGDOCHES    CLEAR     70  68  94 CALM      30.03S                  
6HR MIN TEMP:  68; 6HR MAX TEMP:  72;                                

LUFKIN         CLEAR     73  70  90 CALM      30.03R FOG              
6HR MIN TEMP:  73; 6HR MAX TEMP:  78;                                

$$

SUPPLEMENTAL OBSERVATIONS (CENTRAL)
  
CITY           SKY/WX    TMP DP  RH WIND       PRES   REMARKS
$$

SUPPLEMENTAL OBSERVATIONS (WEST)
  
CITY           SKY/WX    TMP DP  RH WIND       PRES   REMARKS
$$

SUPPLEMENTAL OBSERVATIONS (EAST)
  
CITY           SKY/WX    TMP DP  RH WIND       PRES   REMARKS
$$

SUPPLEMENTAL OBSERVATIONS ARE A COLLECTION OF AUTOMATED INSTRUMENTS
THAT ARE MAINTAINED BY A VARIETY OF FEDERAL AND STATE AGENCIES. 
CERTAIN ELEMENTS...SUCH AS HUMIDITY VALUES AND SUSTAINED WIND 
SPEEDS...MAY BE APPROXIMATED.


Return to Home page


Western Regional Climate Center, wrcc@dri.edu